Location: Baller�as
(41.9020°N, 0.1554°W)
Time: 12:27:08
(UTC+00:00)

Okean 1-7 - Pass Details

Date: 10 August 2020
Orbit: 590 x 619 km, 82.5° (Epoch: 21 September)

Event Time Altitude Azimuth Distance (km) Brightness Sun altitude
Rises 21:28:09 0° 357° (N) 2,872 7.3 -22.3°
Reaches altitude 10° 21:30:27 10° 3° (N) 1,958 6.2 -22.6°
Enters shadow 21:34:15 47° 60° (ENE) 801 3.5 -23.0°
